Lander, WY

2:15 PM MDT on May 26, 2017 (GMT -0600)
Hunt

Weather History for KLND - April, 2012

Change the Weather History Date:

Thursday, April 19, 2012

  Actual Average Record
Temperature  
Mean Temperature 48 °F 45 °F  
Max Temperature 62 °F 57 °F 82 °F (1962)
Min Temperature 34 °F 32 °F 2 °F (1893)
Degree Days  
Heating Degree Days 17 20  
Month to date heating degree days 352 432  
Since 1 July heating degree days 6331 7051  
Cooling Degree Days 0 0  
Month to date cooling degree days 0 0  
Year to date cooling degree days 0 0  
Moisture  
Dew Point 25 °F    
Average Humidity 48    
Maximum Humidity 75    
Minimum Humidity 20    
Precipitation  
Precipitation 0.00 in 0.06 in 1.24 in (1933)
Month to date precipitation 0.99 1.10  
Year to date precipitation 2.66 3.25  
Snow  
Snow 0.00 in 0.50 in - ()
Month to date snowfall 4.1 11.1  
Since 1 July snowfall 63.3 80.8  
Snow Depth 0.00 in    
Sea Level Pressure  
Sea Level Pressure 29.93 in    
Wind  
Wind Speed 7 mph (North)    
Max Wind Speed 22 mph    
Max Gust Speed 37 mph    
Visibility 10 miles    
Events      
T = Trace of Precipitation, MM = Missing Value Source: NWS Daily Summary

Daily Weather History Graph

Daily Weather History Graph

Search for Another Location

Airport or City:

Trip Planner

Search our weather history database for the weather conditions in past years. The results will help you decide how hot, cold, wet, or windy it might be!

Date:

Astronomy

Apr. 19, 2012 Rise Set
Actual Time 6:26 AM MDT 8:02 PM MDT
Civil Twilight 5:56 AM MDT 8:32 PM MDT
Nautical Twilight 5:20 AM MDT 9:08 PM MDT
Astronomical Twilight 4:41 AM MDT 9:47 PM MDT
Moon 5:22 AM MDT (4/19) 6:52 PM MDT (4/19)
Length of Visible Light 14h 36m
Length of Day
13h 36m
Waning Crescent, 2% of the Moon is Illuminated
Apr 19
Waning Crescent
Apr 21
New
Apr 29
First Quarter
May 5
Full
May 12
Last Quarter

Hourly Weather History & Observations

Time (MDT) Temp. Windchill Dew Point Humidity Pressure Visibility Wind Dir Wind Speed Gust Speed Precip Events Conditions
12:53 AM 43.0 °F - 21.0 °F 42% 29.89 in 10.0 mi Calm Calm - N/A   Clear
1:53 AM 39.9 °F - 26.1 °F 58% 29.91 in 10.0 mi Calm Calm - N/A   Clear
2:53 AM 37.0 °F 32.4 °F 23.0 °F 57% 29.90 in 10.0 mi SW 5.8 mph - N/A   Clear
3:53 AM 36.0 °F 33.3 °F 28.0 °F 73% 29.91 in 10.0 mi East 3.5 mph - N/A   Mostly Cloudy
4:53 AM 35.1 °F 32.2 °F 27.0 °F 72% 29.90 in 10.0 mi East 3.5 mph - N/A   Overcast
5:53 AM 35.1 °F 29.3 °F 26.1 °F 70% 29.92 in 10.0 mi NNW 6.9 mph - N/A   Overcast
6:53 AM 35.1 °F 30.1 °F 26.1 °F 70% 29.94 in 10.0 mi West 5.8 mph - N/A   Scattered Clouds
7:53 AM 42.1 °F - 28.0 °F 58% 29.94 in 10.0 mi Calm Calm - N/A   Clear
8:53 AM 45.0 °F - 32.0 °F 60% 29.93 in 10.0 mi Calm Calm - N/A   Clear
9:53 AM 48.9 °F - 28.9 °F 46% 29.91 in 10.0 mi ESE 8.1 mph - N/A   Clear
10:53 AM 52.0 °F - 27.0 °F 38% 29.89 in 10.0 mi Variable 6.9 mph - N/A   Clear
11:53 AM 55.9 °F - 27.0 °F 33% 29.89 in 10.0 mi East 8.1 mph - N/A   Scattered Clouds
12:53 PM 55.9 °F - 24.1 °F 29% 29.88 in 10.0 mi Variable 3.5 mph - N/A   Mostly Cloudy
1:53 PM 57.0 °F - 25.0 °F 29% 29.89 in 10.0 mi North 6.9 mph - N/A   Mostly Cloudy
2:53 PM 59.0 °F - 25.0 °F 27% 29.89 in 10.0 mi NNE 9.2 mph - N/A   Mostly Cloudy
3:53 PM 61.0 °F - 19.0 °F 20% 29.87 in 10.0 mi WNW 21.9 mph 25.3 mph N/A   Scattered Clouds
4:53 PM 60.1 °F - 21.0 °F 22% 29.89 in 10.0 mi WNW 17.3 mph 26.5 mph N/A   Scattered Clouds
5:53 PM 59.0 °F - 21.9 °F 24% 29.91 in 10.0 mi North 18.4 mph - N/A   Mostly Cloudy
6:53 PM 57.9 °F - 21.0 °F 24% 29.94 in 10.0 mi NNW 15.0 mph 21.9 mph N/A   Overcast
7:53 PM 52.0 °F - 24.1 °F 34% 29.97 in 10.0 mi North 16.1 mph - N/A   Partly Cloudy
8:53 PM 48.0 °F - 25.0 °F 41% 30.02 in 10.0 mi NW 8.1 mph - N/A   Clear
9:53 PM 48.0 °F - 25.0 °F 41% 30.05 in 10.0 mi Calm Calm - N/A   Clear
10:53 PM 46.0 °F - 25.0 °F 44% 30.07 in 10.0 mi Calm Calm - N/A   Partly Cloudy
11:53 PM 41.0 °F 38.0 °F 26.1 °F 55% 30.07 in 10.0 mi South 4.6 mph - N/A   Clear